Regional Weather Roundup
Issued by NWS

Home | Current Version | Previous Version | Text Only | Print | Product List | Glossary Off
Versions: 1 2 3 4 5 6 7 8 9 10 11 12 13 14 15 16 17 18 19 20 21 22 23 24 25 26 27 28 29 30 31 32 33 34 35 36 37 38 39 40 41 42 43 44 45 46 47 48 49 50

000
ASUS45 KSLC 261710
RWRUT

UTAH REGIONAL WEATHER ROUNDUP
NATIONAL WEATHER SERVICE SALT LAKE CITY UT
1000 AM MST WED NOV 26 2014

UTZ001>011-023>025-261800-

NORTHERN UTAH

CITY           SKY/WX    TMP DP  RH WIND       PRES   REMARKS
HILL AFB       MOSUNNY   48  33  55 SW7       30.40R
LOGAN          SUNNY     49  34  56 CALM      30.37S
OGDEN          SUNNY     50  34  54 S7        30.39R
PROVO AIRPORT  MOSUNNY   39  28  65 CALM      30.44R
SALT LAKE CITY MOSUNNY   48  30  49 SE6       30.40R
VERNAL         SUNNY     43  29  57 N3        30.35R
WENDOVER       SUNNY     48  32  53 SW5       30.40S
HEBER CITY     SUNNY     36  32  87 CALM      30.41S
WEST JORDAN    SUNNY     50  36  57 S8        30.41R

$$

UTZ012>022-026-027-261800-

SOUTHERN/CENTRAL UTAH

CITY           SKY/WX    TMP DP  RH WIND       PRES   REMARKS
BLANDING       SUNNY     52  26  35 NW9       30.47R
BRYCE CANYON   MOSUNNY   24  19  81 W5        30.51R WCI  18
CEDAR CITY     SUNNY     41  26  55 CALM      30.46R
DELTA          SUNNY     40  24  52 S7        30.46R
MILFORD        SUNNY     40  22  48 S10       30.46R WCI  33
MOAB/CYNLANDS  SUNNY     38  13  35 CALM      30.41R
PRICE          MOSUNNY   41  25  53 CALM      30.40R
ST GEORGE      SUNNY     39  10  30 CALM      30.49S
KANAB          SUNNY     41  12  30 CALM      30.50R

$$

REGIONAL REPORTS     COLORADO/ARIZONA

CITY           SKY/WX    TMP DP  RH WIND       PRES   REMARKS
CRAIG, CO      MOSUNNY   39  28  64 CALM      30.33R
GRAND JUNCTION SUNNY     35  20  54 CALM      30.42R
RIFLE          SUNNY     30  23  75 CALM      30.42R
MONTROSE       SUNNY     44  24  45 N3        30.41S
CORTEZ         SUNNY     49  27  42 NE5       30.39S
PAGE, AZ       SUNNY     47  11  23 CALM      30.43R
GRAND CANYON   SUNNY     50  21  32 CALM      30.48R
KINGMAN        SUNNY     53  10  18 N5        30.41R
FLAGSTAFF      SUNNY     52  22  30 E9        30.48R

$$

REGIONAL REPORTS    NEVADA/IDAHO/WYOMING

CITY           SKY/WX    TMP DP  RH WIND       PRES   REMARKS
LAS VEGAS, NV  SUNNY     55  15  20 S5        30.39R
ELY            SUNNY     39  32  76 S9        30.50R WCI  33
ELKO           SUNNY     37  29  72 CALM      30.45S
POCATELLO, ID  SUNNY     49  38  65 SW22G30   30.33R
BURLEY         MOSUNNY   49  33  54 W15       30.33S
EVANSTON, WY   MOSUNNY   41  29  62 SW16      30.37R
ROCK SPRINGS   MOSUNNY   39  30  70 W31G43    30.26R WCI  27

$$


USA.gov is the U.S. government's official web portal to all federal, state and local government web resources and services.